User: anonymous   Login
Location: Newark
(25.1987°N, 100.3705°W)
Time: 13:13:03
(UTC+00:00)
Language:

LightSail 2 - Orbit

View from above orbital plane
View from above orbital plane
View from above satellite
View from above satellite

Ground track
Ground track

The orbit data is extracted from the following two-line orbital elements,

1 44420U 19036AC  21135.16096292  .00005169  00000-0  10115-2 0  9991
2 44420  24.0072 165.3932 0012378 161.3033 198.7916 14.59934016 98749
Epoch (UTC): 15 May 2021 03:51:47
Eccentricity: 0.0012378
inclination: 24.0072°
perigee height: 684 km
apogee height: 702 km
right ascension of ascending node: 165.3932°
argument of perigee: 161.3033°
revolutions per day: 14.59934016
mean anomaly at epoch: 198.7916°
orbit number at epoch: 9874

The dashed part of the orbit path shows where the satellite is in the earth's shadow,  

DLR